Погода в Ташебе

Россия / Республика Хакасия     53°40′44″N   91°18′14″E
темп.,
°C
ветер,
м/с
пор.,
м/с
влажн.,
%
обл.,
%
осадки,
мм/ч
давл.,
гПа
погр.,
м
22 января, сб
сб2201:00−27с0010094 0.0 10369
04:00−28ссз1110099 0.0 10369
07:00−27ссз1110097 0.1 10379
10:00−25зсз009997 0.1 103733
13:00−19ююв009584 0.1 1037132
16:00−18св009616 0.0 10379
19:00−25ссз1110049 0.0 10399
22:00−27с1110086 0.0 10409
23 января, вс
вс2301:00−28ссз0010096 0.0 10409
04:00−28с0010097 0.0 10409
07:00−29ссз0010096 0.1 10419
10:00−28ююв0010096 0.0 104123
13:00−21вюв019691 0.1 1039137
16:00−19ссз119658 0.0 103815
19:00−24сз1199100 0.0 10399
22:00−23с0098100 0.0 10389
24 января, пн
пн2401:00−24зсз0099100 0.0 10389
04:00−24сз0099100 0.0 10389
07:00−24зсз0099100 0.0 10399
10:00−21св0097100 0.0 104045
13:00−17всв0092100 0.1 1040160
16:00−16ю119417 0.0 104039
19:00−23зсз1110032 0.0 10429
22:00−26зсз0010067 0.0 10449
25 января, вт
вт2501:00−27с0010086 0.0 10449
04:00−27ссв0010095 0.0 10449
07:00−23ююв0099100 0.1 104436
10:00−20ю1197100 0.1 104389
13:00−17ююв1192100 0.3 1041201
16:00−15ююв0091100 0.1 1040180
19:00−18ссз1198100 0.1 10419
22:00−19зсз1199100 0.1 10419
26 января, ср
ср2601:00−21сз0010088 0.1 10419
04:00−19з009899 0.1 104123
07:00−18юз009895 0.2 104118
10:00−17юз009682 0.1 104163
13:00−15ююв009199 0.1 1040214
16:00−15св009476 0.0 10409
19:00−22ссз1110079 0.0 10419
22:00−24ссз1110098 0.0 10429